TimeMDT,TemperatureF,Dew PointF,Humidity,Sea Level PressureIn,VisibilityMPH,Wind Direction,Wind SpeedMPH,Gust SpeedMPH,PrecipitationIn,Events,Conditions,WindDirDegrees,DateUTC
12:05 AM,17.6,1.4,49,30.24,10.0,NNE,10.4,-,N/A,,Clear,20,2013-10-05 06:05:00
12:25 AM,15.8,1.4,53,30.24,10.0,NNE,10.4,-,N/A,,Clear,20,2013-10-05 06:25:00
12:45 AM,14.0,1.4,57,30.23,10.0,NE,8.1,-,N/A,,Clear,50,2013-10-05 06:45:00
1:05 AM,14.0,3.2,62,30.24,10.0,NNE,15.0,-,N/A,,Clear,30,2013-10-05 07:05:00
1:25 AM,14.0,3.2,62,30.24,10.0,NNE,13.8,23.0,N/A,,Clear,20,2013-10-05 07:25:00
1:45 AM,14.0,3.2,62,30.24,10.0,NNE,9.2,20.7,N/A,,Clear,30,2013-10-05 07:45:00
2:05 AM,12.2,3.2,67,30.25,10.0,NE,19.6,25.3,N/A,,Clear,40,2013-10-05 08:05:00
2:25 AM,14.0,3.2,62,30.25,10.0,NNE,15.0,26.5,N/A,,Clear,20,2013-10-05 08:25:00
2:45 AM,14.0,3.2,62,30.26,10.0,NE,11.5,20.7,N/A,,Clear,40,2013-10-05 08:45:00
3:05 AM,14.0,3.2,62,30.26,10.0,NE,11.5,16.1,N/A,,Clear,40,2013-10-05 09:05:00
3:25 AM,14.0,3.2,62,30.25,10.0,NNE,19.6,26.5,N/A,,Clear,30,2013-10-05 09:25:00
3:45 AM,15.8,3.2,58,30.26,10.0,NNE,12.7,24.2,N/A,,Clear,30,2013-10-05 09:45:00
4:05 AM,14.0,3.2,62,30.25,10.0,NE,13.8,27.6,N/A,,Clear,50,2013-10-05 10:05:00
4:25 AM,14.0,5.0,67,30.25,10.0,NE,17.3,34.5,N/A,,Clear,40,2013-10-05 10:25:00
4:45 AM,14.0,5.0,67,30.27,10.0,NE,12.7,21.9,N/A,,Clear,50,2013-10-05 10:45:00
5:05 AM,14.0,5.0,67,30.27,10.0,NE,10.4,25.3,N/A,,Clear,40,2013-10-05 11:05:00
5:25 AM,14.0,5.0,67,30.27,10.0,NE,13.8,23.0,N/A,,Scattered Clouds,40,2013-10-05 11:25:00
5:45 AM,14.0,5.0,67,30.27,10.0,NE,15.0,27.6,N/A,,Scattered Clouds,40,2013-10-05 11:45:00
6:05 AM,14.0,6.8,73,30.26,10.0,NE,9.2,18.4,N/A,,Mostly Cloudy,50,2013-10-05 12:05:00
6:25 AM,14.0,6.8,73,30.26,10.0,NE,24.2,35.7,N/A,,Scattered Clouds,40,2013-10-05 12:25:00
6:45 AM,14.0,6.8,73,30.26,10.0,NNE,23.0,28.8,N/A,,Clear,30,2013-10-05 12:45:00
7:05 AM,14.0,8.6,79,30.26,10.0,NNE,23.0,29.9,N/A,,Clear,30,2013-10-05 13:05:00
7:25 AM,15.8,6.8,68,30.27,10.0,North,15.0,-,N/A,,Clear,360,2013-10-05 13:25:00
7:45 AM,15.8,8.6,73,30.28,10.0,East,4.6,-,N/A,,Clear,80,2013-10-05 13:45:00
8:05 AM,17.6,8.6,68,30.29,10.0,North,3.5,-,N/A,,Clear,10,2013-10-05 14:05:00
8:25 AM,19.4,8.6,63,30.29,10.0,NE,11.5,-,N/A,,Clear,40,2013-10-05 14:25:00
8:45 AM,19.4,8.6,63,30.30,10.0,NE,19.6,23.0,N/A,,Clear,40,2013-10-05 14:45:00
9:05 AM,21.2,10.4,63,30.31,10.0,NE,13.8,-,N/A,,Clear,40,2013-10-05 15:05:00
9:25 AM,23.0,10.4,59,30.32,10.0,East,5.8,-,N/A,,Clear,80,2013-10-05 15:25:00
9:45 AM,23.0,10.4,59,30.33,10.0,ESE,3.5,-,N/A,,Clear,110,2013-10-05 15:45:00
10:05 AM,26.6,10.4,51,30.34,10.0,North,6.9,-,N/A,,Clear,10,2013-10-05 16:05:00
10:25 AM,26.6,10.4,51,30.34,10.0,ENE,4.6,-,N/A,,Clear,60,2013-10-05 16:25:00
10:45 AM,28.4,12.2,51,30.35,10.0,ENE,6.9,-,N/A,,Clear,60,2013-10-05 16:45:00
11:05 AM,30.2,14.0,51,30.35,10.0,NE,21.9,25.3,N/A,,Clear,40,2013-10-05 17:05:00
11:25 AM,30.2,12.2,47,30.37,10.0,NE,13.8,24.2,N/A,,Clear,40,2013-10-05 17:25:00
11:45 AM,32.0,14.0,48,30.38,10.0,NE,6.9,-,N/A,,Clear,50,2013-10-05 17:45:00
12:05 PM,32.0,14.0,48,30.39,10.0,East,9.2,16.1,N/A,,Clear,80,2013-10-05 18:05:00
12:25 PM,32.0,14.0,48,30.39,10.0,ENE,11.5,17.3,N/A,,Clear,60,2013-10-05 18:25:00
12:45 PM,33.8,14.0,44,30.38,10.0,North,4.6,-,N/A,,Clear,10,2013-10-05 18:45:00
1:05 PM,32.0,14.0,48,30.39,10.0,Calm,Calm,-,N/A,,Clear,0,2013-10-05 19:05:00
1:25 PM,32.0,12.2,44,30.40,10.0,NNE,6.9,-,N/A,,Clear,20,2013-10-05 19:25:00
1:45 PM,33.8,14.0,44,30.39,10.0,ENE,9.2,21.9,N/A,,Clear,60,2013-10-05 19:45:00
2:05 PM,33.8,10.4,38,30.39,10.0,NW,3.5,-,N/A,,Clear,310,2013-10-05 20:05:00
2:25 PM,33.8,15.8,48,30.39,10.0,SSW,5.8,-,N/A,,Clear,210,2013-10-05 20:25:00
2:45 PM,32.0,15.8,51,30.40,10.0,South,5.8,-,N/A,,Clear,170,2013-10-05 20:45:00
3:05 PM,33.8,17.6,52,30.40,10.0,WSW,6.9,-,N/A,,Clear,240,2013-10-05 21:05:00
3:25 PM,35.6,17.6,48,30.40,10.0,SW,6.9,-,N/A,,Clear,220,2013-10-05 21:25:00
3:45 PM,33.8,17.6,52,30.40,10.0,WSW,9.2,-,N/A,,Clear,240,2013-10-05 21:45:00
4:05 PM,32.0,17.6,55,30.39,10.0,SW,12.7,18.4,N/A,,Clear,220,2013-10-05 22:05:00
4:25 PM,33.8,17.6,52,30.40,10.0,WNW,5.8,16.1,N/A,,Clear,290,2013-10-05 22:25:00
4:45 PM,32.0,15.8,51,30.41,10.0,WSW,8.1,-,N/A,,Clear,240,2013-10-05 22:45:00
5:05 PM,32.0,17.6,55,30.42,10.0,WSW,8.1,-,N/A,,Clear,240,2013-10-05 23:05:00
5:25 PM,32.0,14.0,48,30.42,10.0,West,4.6,-,N/A,,Clear,260,2013-10-05 23:25:00
5:45 PM,32.0,15.8,51,30.42,10.0,SW,12.7,-,N/A,,Clear,230,2013-10-05 23:45:00
6:05 PM,30.2,15.8,55,30.42,10.0,WSW,11.5,-,N/A,,Clear,240,2013-10-06 00:05:00
6:25 PM,28.4,15.8,59,30.43,10.0,SW,12.7,-,N/A,,Clear,220,2013-10-06 00:25:00
6:45 PM,28.4,14.0,55,30.44,10.0,WSW,10.4,-,N/A,,Clear,250,2013-10-06 00:45:00
7:05 PM,26.6,15.8,64,30.45,10.0,SW,11.5,-,N/A,,Clear,230,2013-10-06 01:05:00
7:25 PM,24.8,15.8,69,30.46,10.0,SW,9.2,-,N/A,,Clear,230,2013-10-06 01:25:00
7:45 PM,24.8,15.8,69,30.46,10.0,SW,9.2,-,N/A,,Clear,230,2013-10-06 01:45:00
8:05 PM,24.8,14.0,64,30.46,10.0,SW,5.8,-,N/A,,Clear,230,2013-10-06 02:05:00
8:25 PM,24.8,14.0,64,30.47,10.0,WNW,5.8,-,N/A,,Clear,300,2013-10-06 02:25:00
8:45 PM,26.6,8.6,47,30.47,10.0,NNW,9.2,-,N/A,,Clear,340,2013-10-06 02:45:00
9:05 PM,28.4,-0.4,29,30.47,10.0,NE,8.1,-,N/A,,Clear,40,2013-10-06 03:05:00
9:25 PM,28.4,-4.0,25,30.48,10.0,NE,15.0,-,N/A,,Clear,40,2013-10-06 03:25:00
9:45 PM,28.4,-0.4,29,30.48,10.0,NE,11.5,-,N/A,,Clear,50,2013-10-06 03:45:00
10:05 PM,28.4,-0.4,29,30.48,10.0,NE,11.5,-,N/A,,Clear,40,2013-10-06 04:05:00
10:25 PM,26.6,1.4,34,30.47,10.0,NE,15.0,-,N/A,,Clear,50,2013-10-06 04:25:00
10:45 PM,26.6,-4.0,26,30.47,10.0,NE,15.0,-,N/A,,Clear,50,2013-10-06 04:45:00
11:05 PM,28.4,-5.8,23,30.47,10.0,NE,16.1,-,N/A,,Clear,50,2013-10-06 05:05:00
11:25 PM,28.4,-5.8,23,30.47,10.0,NE,16.1,-,N/A,,Clear,50,2013-10-06 05:25:00
11:45 PM,26.6,-7.6,22,30.48,10.0,ENE,12.7,-,N/A,,Clear,60,2013-10-06 05:45:00